   A. Farneth, D. C. Fuls, A. R. Gibbs, A. D. Grauer, H. Gröller, J. A.
   Johnson, R. A. Kowalski, S. M. Larson, G. J. Leonard, D. Rankin, R. L.
   Seaman, F. C. Shelly, K. W. Wierzchoś. 1.0-m prime focus + CCD.
(I93) St Pardon de Conques  (N44.558708 W0.203000)  France.  Observers F.
   Losse, W. D'Anna. Measurer F. Losse. 0.40-m f/3.7 reflector + CCD.
(K38) M57 Observatory, Saltrio  (N45.873782 E8.918240)  Italy.  Observer G.
   Baj. 0.3-m f/5.5 Ritchey-Chrétien + CCD.
(K63) G. Pascoli Observatory, Castelvecchio Pascoli  (N44.082407 E10.462000)
   Italy.  Observer R. Bacci. 0.41-m f/3.2 Newtonian reflector + CCD.
(K74) Muensterschwarzach Observatory, Schwarzach  (N49.805276 E10.236400)
   Germany.  Observer C. Gerhard. 0.30-m f/3.75 Newtonian reflector + CCD.
(L01) Višnjan Observatory, Tičan  (N45.290897 E13.749300)  Croatia.
   Observers K. Korlević, D. Pujagic, V. Dobos. Measurers D. Pujagic, K.
   Korlević. 1.0-m f/2.9 reflector + CCD.
(L18) QOS Observatory, Zalistci  (N48.848292 E26.718280)  Ukraine.  Observers
   O. V. Kravchenko, Y. V. Tanasiychuk. Measurer A. M. Kozhukhov. 0.50-m
   f/3.8 reflector + CCD.
(L65) Bredenkamp Observatory, Bremen  (N53.075279 E8.828310)  Germany.
   Observer H. Duin. 0.23-m f/6.3 reflector + CMO.
(M38) Harsona Observatory, Nyiregyhaza  (N47.945776 E21.767190).  Observer T.
   Elek. 0.20-m f/4 reflector + CCD.
(M45) Starhopper Observatory, Sfantu Gheorghe  (N45.865582 E25.768900)
   Romania.  Observer F. Ursache. 0.41-m f/7.5 reflector + CMO.

Orbital elements:  C9K43N2
   Perihelion 2023 Aug 5.63915 +/- 0.027 TT = 15:20:22 (JD 2460162.13915)
Epoch 2023 Sep 26.0 TT = JDT 2460213.5   Earth MOID: 0.0403   Ma: 0.0722
M  22.51501075 +/- 0.07             (J2000 ecliptic)             AutoNEOCP
n   0.43836913 +/- 0.00116          Peri.   96.50935 +/- 0.006
a   1.71623229 +/- 0.00301          Node   191.36368 +/- 0.0024
e   0.5420962 +/- 0.000928          Incl.    8.88494 +/- 0.013
P   2.25/821.21d           H 23.99  G  0.15   U  8.2
q 0.78586914 +/- 0.000213    Q 2.64659544 +/- 0.00624
84 of 89 observations 2023 Sept. 25-26 (40.4 hr); mean residual 0".39
Residuals in arcseconds: 
230925 G96  .09+  .03+    230925 L65  .85+  .71-    230926 G96  .26-  .06+    
230925 G96  .20-  .52+    230925 C40  1.0-  1.2+    230926 G96  .67-  .90+    
230925 G96( 2.0-  .76+)   230925 I93  .23+  .34+    230926 H21  .16+  .16+    
230925 I52  .04-  .04+    230925 204  .28+  .18-    230926 H21  .28+  .33+    
230925 I52  .04-  .08+    230925 958  .50-  .61-    230926 H21  .26+  .31+    
230925 I52  .12+  .25+    230925 C40  .06-  .09-    230926 G96  .10+  .17+    
230925 I52  .08+  .08+    230925 204  .47+  .17-    230926 H21  .39+  .29+    
230925 H01  .09+  .00     230925 203  .10-  .19+    230926 H21  .17+  .33+    
230925 H01  .07+  .03+    230925 106  .14+  .33-    230926 G96  .64-  .63+    
230925 H01  .23+  .11-    230925 958  1.1-  .09-    230926 654  .10-  .00     
230925 H01  .03+  .06+    230925 104  .58-  .46+    230926 654  .02-  .04+    
230925 L18  .90-  .21+    230925 106  .67+  .38-    230926 C82( 6.1+  7.3-)   
230925 L18  .52-  .12+    230925 L65  .33-  .39-    230926 C82( 5.7+  5.9-)   
230925 L18  .46-  .72-    230925 106  .24-  .21+    230926 106  .37+  .33-    
230925 595  .01-  .25+    230925 106  .03-  .25-    230926 106  .15+  .43-    
230925 G02  .82-  .08+    230925 203  .09+  .36-    230926 M38  .25+  .61+    
230925 G02  .30-  .10-    230925 L01  .50-  .06-    230926 106  .15-  .35+    
230925 595  .44-  .34+    230925 L01  .35-  .05+    230926 106  .75-  .07+    
230925 K63  .89+  .34+    230925 203  .11+  .02-    230926 K74  .02+  .08-    
230925 K63  .29+  .61+    230925 L01  .09+  .16+    230926 M38( 3.0+  .50+)   
230925 K63  .24+  .71-    230925 L01  .20-  .09+    230926 K74  .09-  .24-    
230925 G02  .03-  .09-    230925 L01  .12-  .13-    230926 M45  .43-  .14-    
230925 595  .39+  .15-    230925 C40  .21+  .50-    230926 M45  .22+  .83-    
230925 L65  .62+  .51-    230925 C40  .64+  .05-    230926 K74  .01-  .05+    
230925 104  .01+  .72-    230925 C40( .71-  1.9-)   230926 M45  .36+  .50+    
230925 I93  .33+  .23+    230925 C95  .42+  .47-    230926 598  .01+  .10-    
230925 C40  .27+  .77+    230925 C95  .26+  .51+    230926 598  .08-  .11+    
230925 I93  .20-  .10+    230925 C95  .48+  .10+    230926 598  .16+  .05+    
230925 204  .32+  .14-    230925 K38  .31+  .78-    230926 598  .06-  .22-    
230925 958  .25+  .50-    230925 K38  .34-  .06+    

Ephemerides (geocentric):
Date (UTC) HH   RA             Dec           delta  r     elong  mag " sig PA
---- --------  ------------   ------------  ------ ------ -----  --- --------
2023 09 26 21  22 19 05.372   +16 42 33.26  .06197 1.0558 148.3 19.4 .100 162
2023 09 26 22  22 19 57.380   +16 33 29.90  .06223 1.0561 148.5 19.4 .097 163
2023 09 26 23  22 20 48.878   +16 24 30.28  .06250 1.0565 148.7 19.4 .095 164
2023 09 27 00  22 21 39.870   +16 15 34.39  .06276 1.0568 149.0 19.4 .093 166
2023 09 27 01  22 22 30.364   +16 06 42.22  .06303 1.0571 149.2 19.4 .090 167
2023 09 27 02  22 23 20.364   +15 57 53.76  .06330 1.0575 149.4 19.4 .088 168
2023 09 27 03  22 24 09.878   +15 49 09.02  .06357 1.0578 149.6 19.4 .085 170
2023 09 27 04  22 24 58.910   +15 40 27.96  .06384 1.0582 149.8 19.4 .083 172
2023 09 27 05  22 25 47.467   +15 31 50.59  .06411 1.0585 150.0 19.4 .080 174
2023 09 27 06  22 26 35.554   +15 23 16.89  .06438 1.0588 150.3 19.4 .078 176
2023 09 27 07  22 27 23.177   +15 14 46.84  .06466 1.0592 150.5 19.4 .075 178
2023 09 27 08  22 28 10.342   +15 06 20.45  .06493 1.0595 150.7 19.4 .073   1
2023 09 27 09  22 28 57.054   +14 57 57.68  .06521 1.0599 150.9 19.4 .070   4
2023 09 27 10  22 29 43.319   +14 49 38.53  .06548 1.0602 151.1 19.4 .068   7
2023 09 27 11  22 30 29.142   +14 41 22.98  .06576 1.0605 151.3 19.4 .066  11
2023 09 27 12  22 31 14.528   +14 33 11.02  .06604 1.0609 151.5 19.4 .064  14
2023 09 27 13  22 31 59.483   +14 25 02.63  .06632 1.0612 151.7 19.4 .063  18
2023 09 27 14  22 32 44.011   +14 16 57.78  .06660 1.0616 151.9 19.4 .061  23
2023 09 27 15  22 33 28.119   +14 08 56.48  .06689 1.0619 152.1 19.4 .060  28
2023 09 27 16  22 34 11.811   +14 00 58.69  .06717 1.0623 152.3 19.4 .060  32
2023 09 27 17  22 34 55.092   +13 53 04.40  .06745 1.0626 152.4 19.4 .060  37
2023 09 27 18  22 35 37.967   +13 45 13.59  .06774 1.0629 152.6 19.4 .060  42
2023 09 27 19  22 36 20.441   +13 37 26.25  .06803 1.0633 152.8 19.5 .061  47
2023 09 27 20  22 37 02.519   +13 29 42.34  .06832 1.0636 153.0 19.5 .062  52
2023 09 27 21  22 37 44.205   +13 22 01.86  .06860 1.0640 153.2 19.5 .064  57
2023 09 27 22  22 38 25.505   +13 14 24.79  .06889 1.0643 153.4 19.5 .067  62
2023 09 27 23  22 39 06.423   +13 06 51.10  .06918 1.0646 153.5 19.5 .069  66
2023 09 28 00  22 39 46.963   +12 59 20.77  .06948 1.0650 153.7 19.5 .072  70
2023 09 28 01  22 40 27.131   +12 51 53.78  .06977 1.0653 153.9 19.5 .076  74
2023 09 28 02  22 41 06.930   +12 44 30.11  .07006 1.0657 154.0 19.5 .080  77
2023 09 28 03  22 41 46.366   +12 37 09.75  .07036 1.0660 154.2 19.5 .084  80
2023 09 28 04  22 42 25.441   +12 29 52.66  .07065 1.0663 154.4 19.5 .088  83
2023 09 28 05  22 43 04.162   +12 22 38.83  .07095 1.0667 154.5 19.5 .093  86
2023 09 28 06  22 43 42.531   +12 15 28.24  .07124 1.0670 154.7 19.5 .097  88
2023 09 28 07  22 44 20.553   +12 08 20.86  .07154 1.0674 154.9 19.5 .102  90
2023 09 28 08  22 44 58.233   +12 01 16.68  .07184 1.0677 155.0 19.5 .108  92
2023 09 28 09  22 45 35.574   +11 54 15.66  .07214 1.0681 155.2 19.5 .113  94
2023 09 28 10  22 46 12.581   +11 47 17.79  .07244 1.0684 155.3 19.5 .118  96
2023 09 28 11  22 46 49.257   +11 40 23.05  .07274 1.0687 155.5 19.5 .124  97
2023 09 28 12  22 47 25.606   +11 33 31.42  .07305 1.0691 155.7 19.5 .130  99
2023 09 28 13  22 48 01.633   +11 26 42.86  .07335 1.0694 155.8 19.5 .136 100
2023 09 28 14  22 48 37.340   +11 19 57.36  .07365 1.0698 156.0 19.5 .142 101
2023 09 28 15  22 49 12.733   +11 13 14.90  .07396 1.0701 156.1 19.6 .148 102
2023 09 28 16  22 49 47.813   +11 06 35.46  .07426 1.0704 156.2 19.6 .154 103
2023 09 28 17  22 50 22.587   +10 59 59.00  .07457 1.0708 156.4 19.6 .160 104
2023 09 28 18  22 50 57.055   +10 53 25.52  .07488 1.0711 156.5 19.6 .166 105
2023 09 28 19  22 51 31.224   +10 46 54.98  .07518 1.0715 156.7 19.6 .173 106
2023 09 28 20  22 52 05.095   +10 40 27.37  .07549 1.0718 156.8 19.6 .179 107